Find Starlink 30753

NORAD ID: 58175 Int'l Des: 2023-167 Owner: SPXS Country: US Constellation: starlink operational
LEOCIRCULAR

Current View

Loading 3D Globe...

About Starlink 30753

Starlink 30753 (NORAD 58175) is a starlink constellation satellite (v2 mini) launched Oct 30, 2023 by SPXS of US. It operates in LEO, CIRCULAR orbit with a mass of 730.00 kg.

Upcoming Passes

Passes for default location (London). Set your location on the main map for personalized predictions.

Altitude History

Loading altitude history...

Two-Line Element Set

1 58175U 23167A 26263.99717870 .00000371 00000-0 23014-4 0 9997
2 58175 43.0038 120.5217 0001195 272.7634 87.3081 15.27579997160859
Epoch: Sep 20, 2026 • Age: 13 hours

Current Status

Altitude 485.4 km
Apogee / Perigee N/A
Velocity 7.62 km/s
Sub-Earth Point -13.79°S, 111.71°E
Launch Date Oct 30, 2023
Age 2.8 years
Type internet

Technical Details

Classification Payload
Mass 730.00 kg
Dry Mass 700.00 kg
Length 0.30 m
Span 29.00 m
Shape ? Box + pan
Manufacturer SPXS
Bus Type Starlink V2M
Phase Status In Orbit
Owner/State SPXS/US

Most Searched